Location: Franzen
(48.6167°N, 15.3833°E)
Time: 12:53:16
(UTC+00:00)

Cosmos 1655 Rocket - Pass Details

Date: 05 August 2021
Orbit: 969 x 1007 km, 82.9° (Epoch: 25 September)

Event Time Altitude Azimuth Distance (km) Brightness Sun altitude
Exits shadow 20:19:06 13° 177° (S) 2,539 5.7 -15.0°
Maximum altitude 20:24:48 71° 95° (E) 1,061 4.0 -15.6°
Drops below altitude 10° 20:31:12 10° 13° (NNE) 2,796 6.9 -16.3°
Sets 20:33:45 0° 11° (NNE) 3,750 7.7 -16.6°
